Date String (YYYY-MM-DD hh:mm:ss) UTC,Instrument flags,Ambient pressure (hPa),Sample flow (lpm),Bypass flow (lpm),Sample temperature (°C),Ambient temperature (°C),ASC tube jacket temperature (°C),LED temperature (°C),Box temperature (°C),Sample RH (%),Span deviation,Mass concentration (μg/m³),Mass concentration (μg/m³),Mass concentration (μg/m³)
DateTimeUTC,F1_M11,P_M11,Q1_M11,Q2_M11,T1_M11,T2_M11,T3_M11,T4_M11,T5_M11,U1_M11,ZSPAN_M11,X0_M11,X2_M11,X1_M11
2022-04-18 12:00:00,,0833.6,5.01,0.00,23.7,22.7,00.0,32.7,25.5,09.5,0000.0,0007.95,0002.55,0001.27
2022-04-18 12:01:00,,0833.6,4.99,0.00,23.7,22.7,00.0,32.7,25.5,09.5,0000.0,0007.85,0002.47,0001.27
2022-04-18 12:02:00,,0833.6,5.01,0.00,23.7,22.7,00.0,32.7,25.5,09.5,0000.0,0007.93,0002.51,0001.28
2022-04-18 12:03:00,,0833.6,5.00,0.00,23.7,22.7,00.0,32.7,25.5,09.5,0000.0,0008.23,0002.53,0001.29
2022-04-18 12:04:00,,0833.5,5.00,0.00,23.7,22.7,00.0,32.7,25.5,09.5,0000.0,0008.28,0002.56,0001.30
2022-04-18 12:05:00,,0833.5,5.01,0.00,23.7,22.7,00.0,32.7,25.5,09.5,0000.0,0008.39,0002.53,0001.29
2022-04-18 12:06:00,,0833.5,5.00,0.00,23.7,22.6,00.0,32.7,25.4,09.5,0000.0,0008.51,0002.54,0001.29
2022-04-18 12:07:00,,0833.5,4.99,0.00,23.7,22.6,00.0,32.7,25.4,09.5,0000.0,0008.61,0002.55,0001.28
2022-04-18 12:08:00,,0833.5,5.00,0.00,23.7,22.6,00.0,32.7,25.5,09.5,0000.0,0009.12,0002.55,0001.28
2022-04-18 12:09:00,,0833.6,5.00,0.00,23.7,22.6,00.0,32.6,25.5,09.5,0000.0,0008.68,0002.49,0001.28
2022-04-18 12:10:00,,0833.6,5.00,0.00,23.7,22.6,00.0,32.6,25.4,09.5,0000.0,0008.64,0002.46,0001.29
2022-04-18 12:11:00,,0833.6,5.00,0.00,23.7,22.6,00.0,32.6,25.4,09.5,0000.0,0008.39,0002.46,0001.29
2022-04-18 12:12:00,,0833.5,5.01,0.00,23.6,22.6,00.0,32.6,25.4,09.5,0000.0,0008.38,0002.48,0001.29
2022-04-18 12:13:00,,0833.5,4.99,0.00,23.6,22.6,00.0,32.6,25.4,09.5,0000.0,0008.48,0002.46,0001.29
2022-04-18 12:14:00,,0833.6,5.00,0.00,23.6,22.6,00.0,32.6,25.4,09.5,0000.0,0008.04,0002.43,0001.28
2022-04-18 12:15:00,,0833.6,5.00,0.00,23.6,22.6,00.0,32.6,25.4,09.5,0000.0,0008.09,0002.36,0001.28
2022-04-18 12:16:00,,0833.6,5.00,0.00,23.6,22.6,00.0,32.6,25.4,09.5,0000.0,0007.70,0002.34,0001.27
2022-04-18 12:17:00,,0833.6,5.00,0.00,23.6,22.6,00.0,32.6,25.4,09.5,0000.0,0007.46,0002.33,0001.27
2022-04-18 12:18:00,,0833.5,5.00,0.00,23.6,22.5,00.0,32.6,25.3,09.5,0000.0,0007.54,0002.33,0001.28
2022-04-18 12:19:00,,0833.5,5.00,0.00,23.6,22.5,00.0,32.6,25.3,09.5,0000.0,0007.21,0002.29,0001.28
2022-04-18 12:20:00,,0833.6,5.00,0.00,23.6,22.5,00.0,32.6,25.3,09.6,0000.0,0007.82,0002.37,0001.28
2022-04-18 12:21:00,,0833.6,5.00,0.00,23.6,22.5,00.0,32.5,25.3,09.6,0000.0,0008.17,0002.48,0001.28
2022-04-18 12:22:00,,0833.6,5.00,0.00,23.6,22.5,00.0,32.5,25.3,09.6,0000.0,0008.12,0002.48,0001.29
2022-04-18 12:23:00,,0833.6,5.00,0.00,23.6,22.5,00.0,32.5,25.3,09.5,0000.0,0008.11,0002.52,0001.29
2022-04-18 12:24:00,,0833.5,5.00,0.00,23.6,22.5,00.0,32.5,25.3,09.5,0000.0,0008.93,0002.53,0001.30
2022-04-18 12:25:00,,0833.5,5.00,0.00,23.6,22.5,00.0,32.5,25.3,09.5,0000.0,0009.03,0002.49,0001.30
2022-04-18 12:26:00,,0833.4,5.00,0.00,23.6,22.5,00.0,32.5,25.3,09.5,0000.0,0008.90,0002.45,0001.30
2022-04-18 12:27:00,,0833.5,5.01,0.00,23.6,22.5,00.0,32.5,25.3,09.5,0000.0,0009.07,0002.48,0001.30
2022-04-18 12:28:00,,0833.6,5.00,0.00,23.5,22.5,00.0,32.5,25.3,09.6,0000.0,0009.30,0002.51,0001.32
2022-04-18 12:29:00,,0833.6,5.00,0.00,23.5,22.5,00.0,32.5,25.3,09.6,0000.0,0009.27,0002.54,0001.32
2022-04-18 12:30:00,,0833.6,5.00,0.00,23.5,22.5,00.0,32.5,25.3,09.6,0000.0,0009.10,0002.58,0001.31
2022-04-18 12:31:00,,0833.5,5.00,0.00,23.5,22.5,00.0,32.5,25.3,09.6,0000.0,0008.83,0002.54,0001.31
2022-04-18 12:32:00,,0833.4,4.99,0.00,23.5,22.5,00.0,32.5,25.3,09.6,0000.0,0008.15,0002.45,0001.31
2022-04-18 12:33:00,,0833.4,4.99,0.00,23.5,22.5,00.0,32.5,25.2,09.6,0000.0,0008.23,0002.44,0001.31
2022-04-18 12:34:00,,0833.5,5.01,0.00,23.5,22.4,00.0,32.5,25.3,09.6,0000.0,0008.85,0002.48,0001.32
2022-04-18 12:35:00,,0833.5,5.00,0.00,23.5,22.4,00.0,32.5,25.2,09.6,0000.0,0008.03,0002.49,0001.32
2022-04-18 12:36:00,,0833.5,5.00,0.00,23.5,22.4,00.0,32.5,25.3,09.6,0000.0,0008.61,0002.57,0001.33
2022-04-18 12:37:00,,0833.6,5.00,0.00,23.5,22.4,00.0,32.4,25.3,09.6,0000.0,0008.56,0002.62,0001.34
2022-04-18 12:38:00,,0833.6,5.00,0.00,23.5,22.4,00.0,32.4,25.2,09.6,0000.0,0008.50,0002.65,0001.34
2022-04-18 12:39:00,,0833.6,5.00,0.00,23.5,22.4,00.0,32.4,25.2,09.6,0000.0,0008.42,0002.60,0001.34
2022-04-18 12:40:00,,0833.6,5.00,0.00,23.5,22.4,00.0,32.4,25.2,09.6,0000.0,0008.37,0002.58,0001.32
2022-04-18 12:41:00,,0833.6,5.00,0.00,23.5,22.4,00.0,32.4,25.2,09.6,0000.0,0008.41,0002.59,0001.32
2022-04-18 12:42:00,,0833.6,5.01,0.00,23.5,22.4,00.0,32.4,25.2,09.6,0000.0,0008.87,0002.62,0001.33
2022-04-18 12:43:00,,0833.6,4.98,0.00,23.5,22.4,00.0,32.4,25.2,09.6,0000.0,0009.98,0002.71,0001.32
2022-04-18 12:44:00,,0833.6,5.00,0.00,23.5,22.4,00.0,32.4,25.2,09.7,0000.0,0010.37,0002.71,0001.31
2022-04-18 12:45:00,,0833.6,5.00,0.00,23.5,22.4,00.0,32.4,25.2,09.8,0000.0,0010.12,0002.69,0001.31
2022-04-18 12:46:00,,0833.6,5.00,0.00,23.5,22.4,00.0,32.4,25.1,10.0,0000.0,0010.48,0002.67,0001.31
2022-04-18 12:47:00,,0833.6,5.00,0.00,23.5,22.4,00.0,32.4,25.2,10.3,0000.0,0009.79,0002.68,0001.32
2022-04-18 12:48:00,,0833.6,5.00,0.00,23.4,22.4,00.0,32.4,25.2,10.4,0000.0,0009.73,0002.66,0001.33
2022-04-18 12:49:00,,0833.6,5.00,0.00,23.4,22.4,00.0,32.4,25.2,10.2,0000.0,0010.61,0002.67,0001.34
2022-04-18 12:50:00,,0833.6,5.00,0.00,23.4,22.4,00.0,32.4,25.1,10.0,0000.0,0010.57,0002.70,0001.35
2022-04-18 12:51:00,,0833.6,5.00,0.00,23.4,22.4,00.0,32.4,25.1,10.0,0000.0,0010.97,0002.77,0001.37
2022-04-18 12:52:00,,0833.6,5.00,0.00,23.4,22.4,00.0,32.4,25.2,10.0,0000.0,0011.12,0002.80,0001.39
2022-04-18 12:53:00,,0833.6,5.00,0.00,23.4,22.4,00.0,32.4,25.1,10.0,0000.0,0010.79,0002.77,0001.41
2022-04-18 12:54:00,,0833.5,5.00,0.00,23.4,22.4,00.0,32.4,25.1,10.0,0000.0,0009.98,0002.70,0001.42
2022-04-18 12:55:00,,0833.4,5.00,0.00,23.4,22.4,00.0,32.4,25.1,10.0,0000.0,0009.95,0002.73,0001.44
2022-04-18 12:56:00,,0833.4,5.00,0.00,23.4,22.4,00.0,32.4,25.2,10.0,0000.0,0009.99,0002.78,0001.44
2022-04-18 12:57:00,,0833.4,5.02,0.00,23.4,22.4,00.0,32.4,25.1,10.0,0000.0,0009.54,0002.81,0001.44
2022-04-18 12:58:00,,0833.5,5.00,0.00,23.4,22.4,00.0,32.4,25.2,10.0,0000.0,0009.66,0002.72,0001.43
2022-04-18 12:59:00,,0833.5,5.00,0.00,23.4,22.4,00.0,32.4,25.1,09.9,0000.0,0009.85,0002.80,0001.43
